Temperature
19 19 19 19 19 19 19 19 19 19 19 19 19 18 18 19 19 19 19 19 18 18 18 18 18 18 18 18 18 18 18 18 18 18 18 18 18 18 18 18 17 17 17
19 19 19 19 19 19 19 19 19 19 19 19 19 19 18 18 18 18 18 18 18 18 18 18 18 18 18 18 18 18 18 18 18 18 18 18 18 17 17 17 17 17 17
19 19 19 19 19 19 19 19 19 19 19 19 19 19 18 18 18 18 18 18 18 18 18 18 18 18 18 18 18 18 18 18 18 18 18 18 18 17 17 17 17 17 17
19 19 19 19 19 19 19 19 19 19 19 19 19 19 19 18 18 18 18 18 18 18 18 18 18 18 18 18 18 18 18 18 18 18 18 18 18 17 17 17 17 17 17
19 19 19 19 19 19 19 19 19 19 19 19 19 19 19 18 18 18 18 18 18 18 18 18 18 18 18 18 18 18 18 18 18 18 18 18 17 17 17 17 17 17 17
19 19 19 19 19 19 19 19 19 19 19 19 19 19 19 19 18 18 18 18 18 18 18 18 18 18 18 18 18 18 18 18 18 18 18 18 17 17 17 17 17 17 17
19 19 19 19 19 19 19 19 19 19 19 19 19 19 19 19 19 18 18 18 18 18 18 18 18 18 18 18 18 18 18 18 18 18 18 17 17 17 17 17 17 17 17
19 19 19 19 19 19 19 19 19 19 19 19 19 19 19 19 19 18 18 18 18 18 18 18 18 18 18 18 18 18 18 18 18 18 18 17 17 17 17 17 17 17 17
19 19 19 19 19 19 19 19 19 19 19 19 19 19 19 18 18 18 18 18 18 18 18 18 18 18 18 18 18 18 18 18 18 18 18 17 17 17 17 17 17 17 17
19 19 19 19 19 19 19 19 19 19 19 19 19 19 19 19 18 18 18 18 18 18 18 18 18 18 18 18 18 18 18 18 18 18 18 17 17 17 17 17 17 17 17
19 19 19 19 19 19 19 19 19 19 19 19 19 19 19 19 19 18 18 18 18 18 18 18 18 18 18 18 18 18 18 18 18 18 18 18 18 17 17 17 17 17 17
19 19 19 19 19 19 19 19 19 19 19 19 19 19 19 19 19 19 18 18 18 18 18 18 18 18 18 18 18 18 18 18 18 18 18 18 18 18 18 17 17 17 17
20 19 19 19 19 19 19 19 19 19 19 19 19 19 19 19 19 19 19 18 18 18 18 18 18 18 18 18 18 18 18 18 18 18 18 18 18 18 18 17 17 17 17
20 20 19 19 19 19 19 19 19 19 19 19 19 19 19 19 19 19 19 18 18 18 18 18 18 18 18 18 18 18 18 18 18 18 18 18 17 17 17 17 17 17 17
20 20 20 19 19 19 19 19 19 19 19 19 19 19 18 19 19 19 19 18 18 18 18 18 18 18 18 18 18 18 18 18 18 18 18 18 17 17 17 17 17 17 17
20 20 20 20 19 19 19 19 19 19 19 19 19 19 18 18 18 18 19 18 18 18 18 18 18 18 18 18 18 18 18 18 18 18 18 18 18 17 17 17 17 17 17
20 20 20 20 20 19 19 19 19 19 19 19 19 19 18 18 19 18 19 18 18 18 18 18 18 18 18 18 18 18 18 18 18 18 18 18 18 17 17 17 17 17 17
20 20 20 20 20 19 19 19 19 19 19 19 19 19 19 18 18 18 18 18 18 18 18 18 18 18 18 18 18 18 18 18 18 18 18 18 18 18 17 17 17 17 17
21 20 20 20 20 19 19 19 19 19 19 19 19 19 18 18 18 18 18 18 18 18 18 18 18 18 18 18 18 18 18 18 18 18 18 18 18 18 18 18 17 17 17
21 20 20 20 20 19 19 19 19 19 19 19 19 18 18 18 18 18 18 18 18 18 18 18 18 18 18 18 18 18 18 18 18 18 18 18 18 18 18 18 17 17 17
21 20 20 20 20 19 19 19 19 19 19 19 19 19 18 18 18 18 18 18 18 18 18 18 18 18 18 18 18 18 18 18 18 18 18 18 18 18 18 18 17 17 17
21 21 20 20 20 19 19 19 19 19 19 19 18 18 18 18 18 18 18 18 18 18 18 18 18 18 18 18 18 18 18 18 18 18 18 18 18 18 18 18 18 17 17
21 21 20 20 20 19 19 19 19 19 19 19 18 18 18 18 18 18 18 18 18 18 18 18 18 18 18 18 18 18 18 18 18 18 18 18 18 18 18 18 18 17 17
22 21 21 20 20 19 19 19 19 19 19 19 19 18 18 18 18 18 18 18 18 18 18 18 18 18 18 18 18 18 18 18 18 18 18 18 18 18 18 18 18 18 17
22 21 21 20 20 20 19 19 19 19 19 19 19 18 18 18 18 18 18 18 18 18 18 18 18 18 18 18 18 18 18 18 18 17 17 18 18 18 18 18 17 17 17
22 22 21 21 20 20 19 19 19 19 19 19 19 18 18 18 18 18 18 18 18 18 18 18 18 18 18 18 18 18 17 17 17 17 17 17 17 18 18 18 17 17 17
Wind_Speed
1 3 6 8 10 10 11 12 12 12 13 13 13 13 13 14 14 13 13 12 12 12 11 11 10 9 9 9 8 8 8 8 8 8 8 8 8 8 7 7 7 7 8
3 5 7 9 10 11 11 11 11 12 13 13 13 12 13 13 13 13 12 11 11 11 11 11 9 8 8 8 8 7 7 7 7 7 7 7 7 7 7 7 7 6 8
5 5 7 9 10 10 11 11 11 12 12 12 12 12 12 12 12 12 11 11 11 11 10 10 9 8 7 7 7 7 6 6 6 7 6 5 6 6 6 7 7 8 8
5 5 7 9 10 10 10 11 11 12 12 11 11 12 12 12 11 11 10 10 11 10 9 9 8 7 7 6 5 5 6 6 6 6 5 5 5 6 6 7 7 7 8
4 4 7 9 9 10 10 10 11 11 11 11 11 11 11 11 10 10 9 10 9 9 8 8 8 7 6 6 5 5 5 6 6 5 5 4 4 6 7 6 7 8 7
4 4 6 8 8 9 9 10 10 10 10 10 10 10 10 10 10 9 9 9 9 8 7 7 7 6 5 4 4 4 4 5 5 4 4 4 4 6 6 7 7 7 7
3 3 3 6 8 8 8 8 9 9 9 9 9 9 9 9 9 8 9 8 8 7 6 6 5 4 3 2 2 3 4 5 5 4 4 4 4 6 6 7 7 7 7
3 3 3 5 6 8 8 8 8 8 8 7 8 8 9 9 8 8 8 7 6 5 5 4 4 3 2 2 2 2 4 4 5 4 4 4 5 6 6 7 7 7 7
4 3 2 3 4 6 7 7 7 7 7 7 7 7 7 7 7 6 6 5 5 4 4 3 3 2 2 2 2 3 3 4 5 4 4 4 6 6 6 6 7 7 7
3 2 2 3 4 3 4 5 6 6 6 6 6 6 5 5 4 4 3 3 3 3 2 2 2 2 2 3 3 2 2 3 3 3 3 4 6 6 6 6 7 7 7
2 1 2 2 3 3 2 3 4 5 5 5 4 4 3 3 3 2 2 1 1 1 1 1 1 2 2 3 3 2 2 2 2 2 3 5 6 6 6 6 7 7 8
3 2 1 1 1 2 2 3 3 3 4 3 3 3 3 3 2 1 1 1 2 2 2 2 2 3 3 3 2 2 2 2 1 1 3 5 5 6 6 6 7 7 8
4 3 2 2 2 2 1 2 2 3 3 2 2 2 2 2 2 1 1 2 3 3 3 3 3 3 2 1 1 1 1 1 1 2 3 5 5 5 5 5 5 6 7
4 4 3 3 2 2 1 1 2 2 1 1 1 1 2 1 1 1 1 1 1 2 2 1 1 2 2 1 1 0 0 1 2 2 3 4 5 5 5 5 5 6 7
5 5 4 4 3 2 1 1 2 1 1 2 1 2 2 1 0 0 1 1 1 1 1 1 1 1 1 1 0 0 0 1 2 2 3 4 4 5 5 5 5 5 6
5 5 4 4 4 3 3 2 2 2 2 2 2 3 3 2 1 0 0 1 1 0 0 0 0 0 0 1 0 0 1 1 1 2 2 3 3 4 5 5 5 6 6
6 5 5 5 4 4 4 3 2 2 2 2 2 2 3 3 3 2 1 1 0 1 1 1 1 1 1 1 1 1 0 0 1 1 2 2 2 3 4 5 5 6 6
5 5 5 5 5 5 4 3 2 2 2 2 2 2 2 3 3 2 1 1 0 1 1 1 1 1 1 1 1 1 1 0 1 1 1 2 2 3 3 4 5 5 6
6 6 5 5 5 4 3 2 2 1 1 1 1 1 2 3 3 2 1 0 1 1 0 0 1 1 0 1 1 1 1 1 1 1 1 2 2 3 3 3 4 4 6
6 6 6 4 4 4 3 2 1 1 0 0 1 1 2 2 3 2 1 0 1 1 1 1 1 1 0 0 1 2 1 1 1 1 2 2 2 3 3 2 3 3 4
5 5 5 5 4 4 2 2 2 1 1 0 1 1 1 2 2 2 1 1 1 1 1 1 1 1 1 1 1 2 2 1 1 1 1 1 2 3 2 2 3 3 3
7 6 6 5 5 4 3 3 2 2 1 1 0 0 1 1 2 2 2 1 1 1 1 1 1 1 0 1 1 1 2 3 2 1 0 1 2 1 2 3 3 3 3
7 7 7 6 5 5 4 3 3 2 2 1 0 1 1 1 2 2 2 1 1 1 1 1 1 2 1 0 1 1 1 1 2 2 1 1 1 1 2 2 3 3 4
8 7 6 6 5 5 5 4 4 3 3 2 2 1 1 1 1 2 2 2 2 1 1 1 1 2 2 1 0 0 1 1 1 2 2 2 1 1 2 2 2 3 4
8 7 6 6 5 5 5 6 5 3 3 1 1 1 1 1 1 1 2 2 2 2 2 1 1 1 1 2 1 1 1 1 1 1 3 3 2 2 2 2 2 3 4
6 7 6 6 6 5 5 5 6 5 4 3 2 2 1 1 1 1 1 2 2 2 2 2 1 1 1 1 1 1 1 1 1 1 2 3 3 3 2 2 2 2 3
Wind_Direction
130 130 126 121 119 119 122 125 125 124 123 122 124 126 128 129 130 131 130 129 130 130 125 123 122 124 126 126 127 131 135 141 144 148 144 144 144 146 145 143 138 136 140
132 126 126 120 120 121 123 124 124 125 125 126 125 125 127 129 128 127 127 125 126 128 127 125 123 121 124 128 132 135 139 145 149 148 145 145 144 145 144 145 149 147 148
112 116 123 121 121 122 123 123 124 126 128 127 127 126 126 127 128 126 125 124 125 124 123 125 124 124 125 129 135 137 140 142 141 140 135 130 135 141 145 151 159 158 155
111 109 120 124 124 123 123 123 125 126 127 127 128 129 129 129 130 129 129 128 127 126 127 127 123 124 126 132 138 141 144 144 139 133 121 126 139 148 151 156 160 161 161
101 109 127 129 129 126 123 124 124 125 127 127 127 128 129 129 131 131 130 129 127 125 126 125 124 123 127 132 138 141 144 142 137 132 122 125 137 150 153 158 161 160 156
104 114 133 133 133 128 125 125 126 126 128 127 126 127 127 127 128 130 128 127 128 128 127 125 125 126 132 137 144 150 152 151 143 135 134 144 152 162 164 164 159 158 153
120 114 126 128 132 131 130 129 129 128 128 127 129 129 130 129 128 128 125 125 126 125 123 123 125 129 132 136 143 149 149 155 150 146 151 163 170 168 170 167 167 168 164
116 110 117 128 131 137 138 137 132 132 130 131 132 131 130 129 127 126 125 124 125 124 122 125 128 128 129 115 102 127 145 152 154 159 160 170 175 170 172 176 180 178 177
94 89 77 85 111 130 133 137 138 137 138 137 136 134 132 130 128 127 127 127 125 122 119 117 112 103 92 79 77 100 126 136 144 158 171 181 183 185 185 185 186 184 183
79 72 68 66 73 83 110 128 139 142 138 135 135 135 131 129 126 127 130 141 138 131 128 119 95 79 60 54 63 82 103 120 140 152 170 187 191 193 196 198 196 193 190
118 82 70 75 78 84 94 117 125 138 135 126 129 129 113 96 103 121 134 144 133 119 116 111 92 77 63 52 63 95 97 110 135 151 181 194 199 202 206 206 202 199 196
179 169 136 127 113 100 108 87 82 103 106 100 93 99 91 81 71 70 77 27 23 38 47 47 47 52 64 61 66 81 104 126 156 186 198 207 209 211 211 212 210 206 199
184 179 173 170 142 118 99 95 80 89 94 94 91 99 98 73 47 41 31 16 22 29 42 39 41 46 62 76 76 81 133 149 206 236 219 223 224 218 218 216 207 204 198
177 191 183 169 154 158 140 116 114 112 119 149 183 155 129 88 47 37 27 356 30 31 34 34 44 28 35 55 87 140 177 202 223 237 236 235 228 218 219 214 202 197 192
181 190 184 171 174 174 160 179 146 155 175 195 217 210 176 159 183 5 347 356 12 30 51 31 26 9 26 39 7 205 203 228 235 243 247 241 232 216 214 209 204 193 186
184 187 177 175 177 169 177 183 171 179 189 204 223 221 198 186 186 181 306 310 349 34 75 53 334 22 45 88 16 330 265 256 249 260 261 254 241 220 211 207 204 202 192
182 179 176 178 171 175 184 187 175 189 199 213 229 225 205 197 189 188 217 263 291 104 76 69 55 55 53 54 19 336 349 321 286 276 267 261 256 238 217 211 209 209 202
176 173 183 180 167 177 178 175 166 181 187 211 222 215 199 195 192 184 190 240 150 114 104 107 84 56 42 35 354 327 342 334 287 270 256 256 249 244 234 221 215 217 214
181 176 179 180 169 175 170 157 152 147 175 202 185 186 182 184 183 177 176 207 131 106 80 132 93 103 67 356 332 335 326 301 289 283 289 275 251 240 238 235 224 220 218
179 174 175 174 168 158 138 117 99 86 57 76 153 196 182 178 175 166 167 146 122 109 82 71 96 81 100 356 8 357 327 297 279 266 267 272 261 247 239 238 232 217 215
176 174 178 174 170 149 137 144 139 157 165 154 210 212 188 177 172 164 169 153 126 121 125 121 126 88 55 72 52 357 351 354 325 276 260 258 261 251 234 228 225 217 222
188 186 183 185 177 171 165 157 151 147 154 170 277 7 192 185 187 191 180 179 153 131 103 112 122 114 40 62 110 52 352 347 355 359 1 272 270 256 245 234 218 217 227
194 194 195 191 184 179 164 128 106 80 58 51 32 304 292 215 194 185 185 178 160 161 184 193 162 163 179 29 93 143 145 267 315 334 337 321 300 279 269 257 237 227 225
201 192 191 187 187 183 167 161 164 171 186 207 203 226 274 241 198 191 186 184 174 175 195 226 189 179 166 188 54 83 166 165 191 319 327 329 322 300 277 270 254 234 226
193 186 183 179 187 184 178 176 175 181 191 185 172 197 258 302 273 219 196 194 184 190 201 205 177 160 169 183 187 164 128 92 174 209 297 319 330 318 278 259 249 242 234
186 182 178 179 190 184 182 184 184 187 186 183 192 205 231 256 274 264 213 210 197 193 205 205 184 166 177 174 177 173 173 180 197 198 245 286 302 310 305 269 248 247 237
Height
1498 1498 1498 1498 1499 1500 1501 1502 1504 1505 1506 1508 1509 1511 1512 1514 1515 1516 1518 1519 1520 1522 1523 1524 1525 1526 1527 1529 1530 1531 1532 1533 1534 1535 1536 1537 1538 1539 1540 1541 1542 1543 1545
1499 1499 1500 1501 1501 1502 1503 1505 1506 1507 1508 1510 1511 1513 1514 1516 1517 1518 1519 1520 1521 1523 1524 1525 1526 1527 1528 1529 1530 1531 1532 1533 1534 1535 1536 1537 1538 1539 1540 1541 1542 1544 1545
1501 1502 1502 1503 1504 1505 1506 1507 1508 1509 1511 1512 1513 1515 1516 1517 1519 1520 1521 1522 1523 1524 1526 1527 1528 1528 1529 1530 1531 1531 1532 1533 1534 1535 1536 1537 1538 1539 1540 1542 1542 1544 1545
1503 1504 1504 1505 1506 1507 1508 1509 1510 1512 1513 1514 1515 1516 1518 1519 1520 1522 1523 1524 1525 1526 1527 1528 1529 1529 1530 1530 1531 1531 1532 1533 1534 1535 1536 1537 1538 1539 1540 1542 1542 1543 1544
1505 1506 1507 1508 1509 1510 1511 1512 1513 1514 1515 1516 1517 1518 1520 1521 1522 1523 1524 1525 1526 1527 1528 1529 1530 1530 1530 1531 1531 1531 1532 1532 1534 1535 1536 1537 1538 1539 1540 1541 1542 1543 1544
1507 1508 1509 1511 1511 1513 1513 1514 1515 1516 1517 1518 1519 1520 1521 1522 1523 1524 1525 1526 1527 1528 1529 1530 1530 1531 1531 1531 1531 1530 1531 1532 1533 1534 1536 1537 1538 1539 1540 1541 1542 1543 1544
1510 1511 1512 1513 1514 1515 1516 1517 1518 1519 1519 1520 1521 1522 1523 1524 1525 1526 1527 1528 1529 1530 1530 1531 1531 1532 1531 1531 1530 1529 1529 1530 1532 1534 1535 1537 1538 1539 1540 1541 1542 1543 1544
1513 1513 1514 1515 1516 1517 1518 1519 1520 1521 1521 1522 1523 1524 1525 1526 1527 1528 1529 1530 1530 1531 1532 1532 1533 1533 1532 1531 1530 1529 1528 1530 1531 1533 1535 1537 1538 1539 1540 1540 1541 1542 1543
1515 1516 1517 1518 1519 1520 1521 1521 1522 1523 1524 1525 1525 1526 1527 1528 1530 1530 1531 1532 1532 1533 1533 1533 1534 1534 1533 1532 1531 1530 1530 1531 1532 1534 1535 1537 1537 1538 1539 1540 1540 1541 1542
1517 1518 1519 1520 1521 1522 1523 1523 1524 1525 1525 1526 1527 1528 1530 1530 1531 1532 1533 1533 1534 1534 1534 1535 1535 1535 1535 1534 1533 1532 1532 1533 1533 1535 1536 1537 1537 1538 1538 1539 1539 1540 1540
1519 1520 1521 1522 1523 1524 1524 1525 1526 1527 1527 1528 1529 1530 1531 1532 1533 1533 1534 1535 1535 1535 1535 1536 1536 1536 1536 1536 1535 1535 1534 1535 1535 1536 1536 1537 1537 1537 1537 1538 1538 1538 1539
1520 1521 1522 1524 1525 1525 1526 1527 1527 1528 1529 1530 1531 1532 1533 1534 1534 1535 1535 1536 1536 1536 1536 1537 1537 1537 1537 1537 1537 1536 1536 1536 1536 1537 1537 1537 1537 1536 1536 1536 1536 1536 1537
1522 1523 1524 1525 1526 1527 1528 1528 1529 1530 1531 1531 1532 1533 1534 1535 1535 1536 1536 1536 1537 1537 1537 1537 1538 1538 1538 1538 1538 1538 1537 1538 1537 1537 1537 1537 1536 1536 1536 1535 1535 1535 1535
1522 1524 1525 1526 1527 1528 1529 1530 1531 1531 1532 1533 1534 1535 1536 1536 1536 1537 1537 1537 1537 1537 1538 1538 1538 1539 1539 1539 1539 1538 1538 1538 1538 1537 1537 1537 1536 1536 1535 1535 1534 1534 1534
1523 1525 1526 1527 1528 1529 1530 1531 1532 1532 1533 1534 1535 1536 1536 1537 1537 1537 1538 1538 1538 1538 1539 1539 1539 1539 1539 1539 1539 1539 1539 1538 1538 1538 1537 1537 1536 1535 1535 1535 1535 1535 1535
1524 1525 1527 1528 1529 1530 1531 1532 1533 1534 1535 1535 1536 1536 1537 1537 1538 1538 1538 1538 1539 1539 1539 1539 1540 1540 1540 1540 1539 1539 1539 1538 1538 1538 1537 1537 1536 1535 1535 1535 1535 1536 1536
1524 1526 1527 1528 1529 1530 1531 1532 1533 1534 1535 1536 1536 1537 1537 1538 1538 1538 1538 1539 1539 1539 1540 1540 1540 1540 1540 1540 1539 1539 1539 1538 1538 1538 1537 1537 1536 1536 1536 1536 1536 1536 1537
1525 1526 1528 1528 1529 1530 1532 1533 1534 1535 1536 1536 1537 1537 1538 1538 1538 1539 1539 1539 1539 1539 1540 1540 1540 1540 1540 1540 1539 1539 1538 1538 1538 1538 1537 1537 1536 1536 1536 1536 1536 1537 1537
1525 1526 1528 1529 1530 1531 1532 1533 1534 1535 1536 1537 1537 1537 1538 1538 1539 1539 1539 1539 1540 1540 1540 1540 1540 1540 1540 1539 1539 1539 1538 1538 1538 1537 1537 1537 1536 1536 1536 1536 1536 1537 1537
1525 1526 1528 1529 1530 1531 1532 1533 1534 1535 1536 1537 1537 1538 1538 1538 1539 1539 1539 1539 1540 1540 1540 1540 1540 1539 1539 1539 1539 1538 1538 1538 1537 1537 1537 1537 1536 1536 1536 1536 1537 1537 1537
1525 1526 1527 1528 1530 1531 1532 1533 1534 1535 1536 1536 1537 1537 1538 1538 1538 1539 1539 1539 1539 1539 1539 1539 1539 1539 1539 1539 1539 1538 1538 1537 1537 1537 1536 1536 1536 1536 1536 1536 1536 1537 1537
1523 1525 1526 1528 1529 1530 1532 1533 1534 1535 1535 1536 1537 1537 1538 1538 1538 1538 1538 1538 1538 1539 1539 1539 1539 1539 1539 1538 1538 1538 1537 1538 1536 1536 1536 1536 1536 1536 1536 1536 1536 1536 1536
1522 1524 1525 1527 1528 1530 1531 1532 1533 1534 1535 1535 1536 1536 1537 1537 1537 1537 1537 1538 1538 1538 1538 1538 1538 1538 1538 1538 1538 1538 1537 1536 1536 1536 1535 1535 1535 1535 1535 1535 1535 1535 1535
1520 1522 1524 1526 1527 1529 1530 1531 1532 1533 1533 1534 1535 1536 1536 1536 1536 1536 1536 1537 1537 1537 1537 1537 1537 1537 1537 1537 1537 1537 1538 1537 1536 1535 1535 1534 1534 1534 1534 1534 1534 1534 1534
1519 1521 1523 1524 1526 1527 1529 1529 1530 1531 1532 1533 1534 1534 1535 1535 1535 1536 1536 1536 1536 1536 1536 1536 1537 1537 1537 1536 1536 1536 1536 1536 1536 1535 1534 1533 1533 1533 1533 1533 1533 1533 1532
1517 1519 1520 1522 1523 1525 1527 1528 1529 1530 1531 1531 1532 1533 1533 1534 1534 1534 1535 1534 1535 1535 1535 1535 1535 1536 1536 1536 1535 1535 1535 1535 1534 1534 1533 1532 1532 1532 1531 1531 1531 1531 1530